Home   Weather   Kløfta   Past weeks

Flag for Norway Past Weather in Kløfta, Norway — Yesterday and Last 2 Weeks

Now
30 °F

Passing clouds.


Feels Like: 25 °F
Forecast: 31 / 38 °F
Wind: 5 mph from Northwest

Location: Oslo Gardermoen Airport

Current Time: Feb 26, 2017 at 2:35:49 am

Latest Report: Feb 26, 2017 at 1:50 am


Visibility: 4 mi

Pressure: 29.30 "Hg

Humidity: 93%

Dew Point: 28 °F

Location of KløftaLocation

Past Weather in Kløfta — Graph

°F

Kløfta Temperature Yesterday

Maximum temperature yesterday: 32 °F (at 10:50 pm)
Minimum temperature yesterday: 12 °F (at 7:50 am)
Average temperature yesterday: 24 °F

High & Low Weather Summary for the Past Weeks

 TemperatureHumidityPressure
High43 °F (Feb 19, 1:50 pm)100% (Feb 15, 5:20 am)30.77 "Hg (Feb 15, 5:20 am)
Low10 °F (Feb 24, 5:50 am)30% (Feb 23, 3:20 pm)28.59 "Hg (Feb 22, 5:20 pm)
Average26 °F83%29.85 "Hg
* Reported Feb 11 12:20 am — Feb 26 12:50 am, Kløfta, Weather by CustomWeather, © 2017

Note: Actual official high and low records may vary slightly from our data, if they occured in-between our weather recording intervals... More about our weather records

Advertising

Kløfta Weather History for the Previous 24 Hours

Scroll right to see more
 ConditionsComfort  
Time TempWeatherWind HumidityBarometerVisibility
12:50 am
Sun, Feb 26
30 °FIce fog.2 mph93%29.30 "Hg1 mi
12:20 am30 °FSnow. Overcast.No wind93%29.30 "Hg1 mi
11:50 pm
Sat, Feb 25
32 °FIce fog.1 mph93%29.30 "Hg2 mi
11:20 pm32 °FIce fog.3 mph93%29.30 "Hg2 mi
10:50 pm32 °FLight rain. Ice fog.3 mph93%29.30 "Hg3 mi
10:20 pm30 °FIcy mix. Partly cloudy.6 mph100%29.30 "Hg4 mi
9:50 pm30 °FIcy mix. Partly cloudy.7 mph93%29.33 "Hg4 mi
9:20 pm30 °FIcy mix. Ice fog.8 mph93%29.33 "Hg2 mi
8:50 pm30 °FLight snow. Ice fog.6 mph93%29.36 "Hg2 mi
8:20 pm30 °FLight snow. Ice fog.9 mph93%29.36 "Hg3 mi
7:50 pm30 °FLight snow. Low clouds.7 mph93%29.39 "Hg1 mi
7:20 pm28 °FSnow. Passing clouds.7 mph100%29.39 "Hg1 mi
6:50 pm28 °FLight snow. Passing clouds.9 mph93%29.42 "Hg1 mi
6:20 pm28 °FSnow. Ice fog.8 mph93%29.45 "Hg1 mi
5:50 pm28 °FSnow. Ice fog.8 mph93%29.45 "Hg1 mi
5:20 pm28 °FSnow. Ice fog.10 mph93%29.47 "Hg1 mi
4:50 pm28 °FSnow. Partly sunny.13 mph93%29.50 "Hg1 mi
4:20 pm28 °FSnow. Partly sunny.10 mph93%29.53 "Hg1 mi
3:50 pm28 °FSnow. More clouds than sun.9 mph93%29.56 "Hg1 mi
3:20 pm28 °FSnow. Low clouds.13 mph86%29.56 "Hg1 mi
2:50 pm28 °FLight snow. Partly sunny.8 mph74%29.59 "Hg4 mi
2:20 pm28 °FLight snow. Partly sunny.7 mph64%29.62 "HgN/A
1:50 pm27 °FSunny.9 mph64%29.65 "Hg10 mi
1:20 pm27 °FPassing clouds.5 mph59%29.68 "HgN/A
12:50 pm25 °FSunny.3 mph63%29.68 "Hg10 mi
12:20 pm23 °FSunny.7 mph68%29.71 "Hg10 mi
11:50 am23 °FSunny.7 mph63%29.71 "Hg10 mi
11:20 am21 °FSunny.6 mph68%29.74 "Hg10 mi
10:50 am19 °FSunny.2 mph68%29.74 "Hg10 mi
10:20 am19 °FSunny.No wind63%29.74 "Hg10 mi
9:50 am18 °FSunny.2 mph62%29.74 "Hg10 mi
9:20 am16 °FSunny.1 mph67%29.74 "Hg10 mi
8:50 am18 °FSunny.No wind68%29.77 "Hg10 mi
8:20 am16 °FSunny.2 mph67%29.77 "Hg10 mi
7:50 am12 °FSunny.2 mph73%29.77 "Hg10 mi
7:20 am14 °FClear.2 mph73%29.77 "Hg10 mi
6:50 am14 °FPassing clouds.6 mph67%29.77 "HgN/A
6:20 am16 °FClear.1 mph62%29.77 "Hg10 mi
5:50 am18 °FClear.2 mph62%29.77 "Hg10 mi
5:20 am19 °FPassing clouds.6 mph63%29.77 "HgN/A
4:50 am14 °FClear.6 mph67%29.77 "Hg10 mi
4:20 am19 °FClear.3 mph63%29.77 "Hg10 mi
3:50 am21 °FPassing clouds.3 mph58%29.77 "HgN/A
3:20 am21 °FClear.No wind58%29.74 "Hg10 mi
2:50 am21 °FClear.5 mph54%29.74 "Hg10 mi
2:20 am25 °FPassing clouds.7 mph50%29.74 "HgN/A
Weather by CustomWeather, © 2017

See weather overviewHow to use our weather pages